Wind_Speed
54 54 52 51 51 52 49 45 42 42 41 40 39 36 34 31 29 27 23 21 19 17 16 14 12 11 10 9 8 7 6 6 5 4 4 3 2 2 2 3 3 3 3 3 4 5 6 6 7
55 55 54 53 53 52 49 46 44 43 44 42 39 37 35 32 31 28 24 23 21 18 17 15 13 12 11 10 9 8 7 7 6 5 5 4 3 2 2 3 3 3 3 4 4 5 6 6 7
56 56 55 55 54 52 47 46 46 45 44 43 40 39 38 35 32 29 26 24 22 20 18 16 14 13 11 11 10 9 8 8 7 6 5 5 3 3 3 3 3 3 3 4 4 5 5 6 7
56 57 57 57 54 50 47 46 47 46 44 43 42 41 39 36 33 30 28 26 23 21 19 17 15 13 12 12 11 10 10 9 8 7 6 5 4 4 3 3 3 3 3 4 4 5 6 6 7
57 57 58 58 54 50 48 48 47 46 46 44 43 42 41 38 35 32 30 28 25 22 20 18 16 15 14 13 12 12 11 10 9 8 7 6 5 4 4 3 3 4 4 4 5 5 6 7 8
57 57 57 57 53 51 51 51 47 47 47 46 44 42 41 39 37 35 33 29 27 24 21 19 18 16 15 14 14 13 12 11 10 9 8 7 6 5 4 4 4 4 4 5 5 6 7 8 9
56 56 55 53 52 52 53 52 49 48 48 47 45 42 42 41 39 37 34 31 28 26 23 21 19 18 17 16 15 14 13 12 11 10 9 8 7 6 6 5 5 5 5 6 7 7 8 9 10
56 55 55 54 53 52 52 52 51 49 48 48 47 44 42 41 40 38 34 32 29 27 25 23 21 20 19 18 17 16 15 14 13 11 10 9 8 8 7 7 6 6 7 7 8 9 10 11 12
57 57 56 53 52 51 52 52 52 51 51 49 48 44 42 41 39 39 36 34 31 29 26 24 23 22 21 20 19 18 17 15 14 13 12 11 10 9 9 8 8 8 8 9 9 10 11 12 13
58 57 53 51 50 49 50 53 52 52 52 50 49 46 43 43 41 39 38 35 33 30 28 26 24 23 22 22 21 20 19 17 16 14 13 12 11 11 10 10 10 10 10 10 11 12 13 14 15
58 56 52 52 51 49 50 51 52 52 52 51 50 48 45 44 43 41 40 38 34 32 30 28 26 24 24 23 23 22 21 19 18 16 15 14 13 13 12 12 12 12 12 12 13 14 15 16 17
56 56 53 52 52 50 49 49 50 52 52 52 51 49 48 45 44 43 41 39 36 34 31 29 28 26 25 25 25 24 23 21 20 19 17 16 15 15 14 14 14 14 14 15 15 16 16 18 19
56 56 56 55 53 50 48 49 49 50 51 52 51 50 49 48 46 45 42 41 38 35 33 31 30 28 26 26 26 26 25 24 22 21 20 19 18 17 16 16 16 16 16 17 18 18 19 20 21
55 56 57 55 53 51 49 47 48 50 50 50 51 51 50 49 48 46 44 41 39 37 35 34 32 30 29 28 28 28 27 26 25 24 23 21 21 20 19 18 19 19 19 19 20 21 21 22 23
54 56 56 55 53 51 50 47 48 48 49 51 51 51 51 50 48 47 45 43 40 38 37 36 35 33 31 30 30 29 29 29 27 27 26 24 23 23 22 22 22 22 22 22 23 23 24 25 26
53 56 56 55 53 51 49 46 46 48 48 50 52 52 51 50 48 47 46 44 42 41 39 38 37 35 34 33 32 32 31 31 30 29 29 27 26 25 25 25 25 24 25 25 25 26 27 28 29
50 52 54 54 52 51 49 47 45 48 50 49 51 52 53 51 50 48 47 45 44 43 41 40 38 37 36 35 34 34 33 33 33 32 31 30 30 29 28 28 28 27 27 28 28 29 30 30 31
47 48 50 51 49 49 49 47 46 48 50 49 50 52 53 52 51 49 48 47 46 44 43 42 40 39 38 37 36 36 35 35 35 35 34 33 33 32 32 31 31 31 31 31 32 32 33 34 34
42 44 47 48 47 47 47 46 46 47 48 49 50 51 52 52 52 51 48 47 46 45 43 42 42 40 39 39 38 37 37 37 37 37 37 37 36 36 35 35 34 34 34 34 35 35 36 36 37
41 43 44 45 45 44 45 48 46 46 47 48 48 49 50 50 51 51 50 49 48 47 45 44 42 42 41 41 40 40 40 40 39 39 40 40 39 39 38 38 37 37 37 37 38 38 39 39 40
39 41 41 39 41 42 44 45 46 45 47 47 47 48 47 48 48 49 50 49 48 48 47 45 44 44 43 43 42 42 42 42 42 42 42 42 41 41 41 41 41 41 41 41 41 42 42 42 43
34 37 39 38 38 38 40 41 41 42 45 46 46 46 46 45 46 48 49 49 49 48 48 47 46 45 45 45 45 45 45 44 44 44 44 44 44 44 45 45 45 45 45 44 45 45 45 45 45
30 34 35 35 36 36 37 39 38 39 42 44 45 45 46 46 46 47 48 48 48 49 49 48 48 47 46 46 46 46 47 47 46 46 46 46 46 47 48 48 48 48 47 47 47 47 47 47 47
27 30 32 32 35 35 35 36 37 37 39 40 43 44 45 47 46 47 48 48 47 48 49 50 49 48 49 48 47 47 48 48 48 49 49 48 48 48 49 50 50 50 49 48 48 48 48 48 48
26 28 30 31 33 33 33 35 35 36 38 38 40 42 43 45 46 46 46 46 47 48 48 49 50 50 51 51 51 51 50 50 49 50 50 51 50 50 50 51 51 51 50 50 49 49 49 49 49
25 26 26 27 28 30 31 33 32 34 35 36 37 39 41 43 44 44 44 45 46 47 48 49 49 50 51 52 52 53 52 52 51 52 52 52 52 52 52 52 51 51 51 50 50 49 49 49 49
24 25 25 25 25 26 27 29 30 30 31 32 34 36 38 39 41 43 43 43 44 45 47 48 48 49 49 49 50 50 51 51 52 52 51 51 52 52 52 52 51 51 50 50 49 49 48 48 47
22 24 25 25 25 25 25 26 28 29 29 29 30 33 34 36 38 39 41 42 43 44 45 45 46 48 48 48 49 50 51 51 51 51 51 51 51 51 50 50 50 49 49 49 49 48 48 47 46
21 23 25 26 26 25 24 25 26 26 27 27 28 29 31 33 34 36 37 39 40 42 43 44 44 45 46 47 48 49 50 51 51 51 51 51 50 50 50 50 49 49 49 49 48 48 47 47 46
20 22 24 26 25 24 24 24 23 23 24 25 26 27 29 31 32 33 35 37 39 40 41 42 43 44 45 46 47 48 49 50 51 51 51 51 51 51 51 51 50 50 50 49 48 48 47 46 46
Wind_Direction
217 218 217 216 216 216 211 206 206 205 203 200 199 198 200 208 215 218 217 220 222 225 227 229 232 234 234 232 231 230 229 227 227 232 237 243 257 292 317 329 332 339 346 347 349 349 349 351 353
216 217 217 217 217 216 213 208 206 206 206 204 202 200 204 210 216 218 217 220 223 226 228 229 232 233 232 232 229 228 228 227 226 228 232 239 253 284 309 322 328 336 343 345 345 345 346 347 348
215 215 217 217 217 216 214 211 210 210 209 206 204 202 207 210 213 216 218 220 223 227 229 231 232 233 232 231 228 226 225 225 226 227 232 240 253 275 295 310 320 328 336 341 343 343 344 344 343
214 214 217 218 217 216 214 213 213 214 212 209 208 208 210 212 215 217 219 221 223 226 229 231 231 232 233 232 230 227 225 225 228 229 235 242 255 269 284 299 310 319 327 333 337 339 341 341 341
213 214 216 218 217 215 214 213 214 215 214 211 210 211 211 212 213 215 218 221 222 225 228 230 231 233 234 233 231 230 227 228 230 231 235 242 253 263 273 286 298 308 318 325 331 334 336 337 338
212 214 216 217 215 215 215 215 213 215 215 212 211 211 211 211 213 214 217 220 222 224 226 229 231 234 234 233 232 231 231 231 232 233 237 244 252 261 271 280 289 300 310 319 326 330 332 333 335
211 214 215 215 214 215 216 216 216 216 215 213 213 214 212 211 212 214 216 220 223 225 226 229 232 234 235 233 232 232 232 233 235 237 242 248 255 262 271 279 288 296 304 312 319 325 328 330 332
209 213 213 212 213 214 215 218 219 218 217 214 213 214 213 212 211 212 216 222 225 226 228 230 232 234 235 234 233 232 233 235 237 240 245 251 258 265 271 277 286 294 302 308 314 319 322 326 328
207 211 211 210 212 213 216 218 220 222 221 217 216 216 214 213 213 213 217 221 225 228 229 231 234 235 235 235 234 233 233 235 238 241 245 251 259 265 272 277 284 291 299 305 310 313 317 321 324
207 209 209 208 211 213 216 219 219 222 223 221 219 218 216 214 215 214 217 220 223 227 230 233 235 235 235 235 235 234 234 235 238 241 245 250 257 264 271 276 282 288 294 300 305 309 313 316 319
207 207 206 207 209 211 216 220 220 222 223 222 221 220 218 218 216 217 218 220 222 226 230 234 237 236 236 236 236 236 236 237 238 241 245 250 256 262 268 274 279 285 290 295 300 305 308 312 314
207 205 205 206 208 211 215 218 220 221 222 222 221 221 220 220 220 220 221 221 224 227 231 236 239 239 239 239 238 238 238 239 240 243 246 250 255 261 266 272 277 282 287 291 296 300 303 307 310
206 204 205 207 209 210 215 218 221 222 223 223 222 222 222 221 222 221 222 223 225 227 231 236 241 243 244 243 242 241 241 241 242 245 247 251 255 261 266 271 276 280 284 288 292 295 299 303 306
206 206 207 208 208 209 213 215 218 221 222 222 223 224 224 224 225 225 224 224 226 229 234 237 242 245 246 247 246 245 244 244 245 247 249 252 257 262 266 271 275 279 282 286 290 293 297 300 303
205 206 207 208 208 208 212 215 217 219 221 222 223 225 226 226 227 228 229 228 229 231 234 238 242 245 247 247 248 248 248 248 248 249 251 254 258 262 266 270 275 279 282 285 289 292 295 298 300
205 206 207 207 209 209 211 214 220 220 220 222 223 224 226 228 228 229 230 232 233 234 237 240 242 244 246 247 249 250 251 251 252 253 255 257 260 264 267 271 275 279 282 284 287 291 294 297 299
205 207 208 207 210 210 212 213 217 221 221 221 223 224 225 227 229 231 231 233 236 237 238 241 243 245 246 248 250 251 252 254 254 256 258 260 262 265 269 272 275 278 281 284 286 290 292 295 297
204 206 208 208 210 213 214 216 217 220 221 221 224 225 226 227 229 231 233 234 235 238 239 241 243 245 247 249 251 252 254 256 257 259 261 263 265 267 270 273 276 279 282 284 286 289 291 294 296
203 206 210 210 212 214 215 215 217 219 222 222 223 226 228 229 230 231 233 235 236 237 240 243 245 245 247 249 252 253 255 257 259 261 262 264 266 268 271 273 276 279 282 284 287 289 291 293 295
204 205 208 212 215 217 218 217 218 220 222 224 225 226 229 231 233 233 234 236 238 240 241 243 246 247 248 250 251 254 257 258 260 263 264 265 267 270 272 274 276 279 282 284 286 288 290 292 294
205 206 208 211 216 220 220 220 222 222 223 224 227 228 230 232 235 236 236 237 239 241 243 245 247 249 250 251 253 255 257 260 261 263 265 266 268 270 272 275 277 279 281 283 286 288 290 292 293
205 209 211 214 218 222 224 225 224 226 225 225 227 230 232 234 236 238 238 238 240 242 244 246 248 249 251 252 254 255 257 259 261 264 265 266 268 271 273 275 276 278 280 282 285 287 289 290 292
204 207 212 218 222 226 227 229 227 230 229 227 228 230 233 235 237 239 240 240 241 242 244 246 248 250 252 253 254 256 258 260 261 263 265 267 269 272 274 275 276 278 279 281 283 285 287 289 290
201 204 210 217 223 227 229 233 232 233 232 232 231 232 235 237 238 240 241 241 242 244 245 247 248 250 252 253 255 257 258 259 261 262 265 267 269 272 273 274 275 276 278 280 282 283 285 287 288
202 206 211 217 223 229 231 236 235 237 236 236 237 236 238 239 240 242 244 244 245 246 247 249 251 252 253 254 255 257 258 260 261 263 265 267 268 271 273 273 274 275 276 279 281 282 284 286 287
203 207 211 218 225 230 233 236 236 238 240 241 242 240 240 242 243 244 246 247 248 249 250 251 252 253 254 256 257 258 259 261 262 264 266 267 269 271 272 273 274 275 277 278 280 281 283 285 287
203 208 212 218 225 231 235 237 238 240 240 242 244 244 244 244 245 246 247 248 250 250 251 252 254 254 255 257 258 259 260 262 263 265 266 268 270 271 272 273 275 276 277 278 280 281 283 285 286
210 212 215 220 226 233 238 240 241 240 242 244 245 246 246 246 247 249 249 250 251 252 253 253 254 255 256 257 258 259 261 262 264 265 267 269 271 272 273 274 275 276 277 277 279 281 282 283 284
215 217 221 225 229 235 240 243 243 246 246 247 247 247 248 248 249 250 251 251 251 252 254 255 256 256 257 257 259 260 262 263 264 266 268 269 270 271 273 274 275 276 276 278 279 280 281 282 283
222 222 224 227 230 235 241 242 245 248 249 249 247 248 249 250 250 251 252 253 252 252 253 254 256 257 258 258 259 261 262 263 264 266 267 269 270 271 272 274 275 275 276 277 278 279 280 281 281
Height
5777 5783 5788 5793 5799 5805 5813 5822 5828 5832 5836 5842 5847 5851 5854 5857 5861 5868 5871 5873 5875 5878 5880 5882 5883 5885 5887 5888 5889 5890 5891 5892 5893 5893 5894 5894 5894 5894 5894 5894 5893 5893 5893 5893 5892 5892 5892 5891 5890
5769 5775 5781 5785 5790 5799 5810 5817 5822 5826 5831 5838 5843 5847 5851 5854 5858 5863 5867 5870 5873 5875 5878 5880 5882 5883 5885 5886 5888 5889 5890 5891 5892 5892 5893 5893 5893 5893 5893 5893 5893 5892 5892 5892 5892 5891 5891 5890 5890
5760 5766 5773 5778 5784 5795 5806 5813 5817 5821 5826 5833 5838 5841 5846 5851 5854 5859 5863 5867 5870 5873 5875 5877 5880 5882 5883 5885 5886 5888 5889 5890 5891 5891 5892 5892 5892 5892 5892 5892 5892 5892 5891 5891 5891 5890 5890 5889 5889
5751 5758 5765 5772 5780 5792 5801 5806 5810 5815 5822 5828 5833 5837 5843 5848 5852 5856 5860 5864 5867 5870 5873 5875 5877 5880 5881 5883 5885 5886 5887 5888 5889 5890 5891 5891 5891 5891 5891 5891 5891 5891 5891 5890 5890 5889 5889 5888 5888
5743 5751 5758 5765 5777 5788 5794 5797 5803 5810 5817 5823 5829 5833 5839 5844 5848 5852 5856 5860 5864 5867 5870 5873 5875 5877 5879 5881 5883 5884 5885 5886 5888 5888 5889 5890 5890 5890 5890 5890 5890 5890 5889 5889 5889 5888 5888 5887 5887
5736 5743 5751 5760 5773 5782 5787 5792 5798 5804 5810 5818 5823 5829 5834 5838 5843 5847 5851 5856 5860 5864 5867 5870 5872 5875 5877 5879 5880 5882 5883 5884 5886 5887 5887 5888 5888 5889 5889 5889 5888 5888 5888 5888 5887 5887 5886 5886 5885
5729 5737 5746 5758 5767 5775 5780 5787 5793 5799 5805 5812 5817 5823 5829 5833 5838 5842 5847 5852 5856 5860 5864 5867 5870 5872 5874 5876 5878 5880 5881 5882 5883 5885 5885 5886 5887 5887 5887 5887 5887 5887 5886 5886 5886 5885 5885 5884 5884
5722 5731 5739 5750 5759 5768 5775 5781 5787 5794 5799 5805 5811 5818 5824 5829 5833 5838 5843 5848 5853 5857 5860 5864 5866 5869 5871 5873 5875 5877 5879 5880 5881 5882 5883 5884 5885 5885 5885 5885 5885 5885 5885 5884 5884 5883 5883 5882 5882
5714 5723 5731 5744 5753 5762 5768 5775 5782 5787 5793 5801 5807 5814 5821 5825 5829 5833 5839 5844 5848 5853 5857 5860 5863 5866 5868 5870 5872 5874 5876 5877 5879 5880 5881 5882 5882 5883 5883 5883 5883 5883 5882 5882 5882 5881 5881 5880 5880
5704 5715 5728 5741 5749 5756 5762 5768 5776 5782 5789 5796 5802 5809 5815 5820 5824 5829 5834 5839 5844 5848 5852 5856 5859 5862 5864 5867 5869 5871 5873 5875 5876 5877 5878 5879 5880 5881 5881 5881 5881 5881 5880 5880 5879 5879 5879 5878 5877
5698 5712 5725 5734 5741 5748 5755 5762 5770 5776 5783 5790 5797 5804 5810 5815 5820 5825 5830 5835 5839 5843 5848 5851 5855 5858 5861 5863 5866 5868 5870 5872 5873 5874 5875 5876 5877 5878 5878 5878 5878 5878 5878 5877 5877 5876 5876 5875 5874
5694 5708 5717 5726 5733 5742 5749 5756 5763 5769 5776 5784 5792 5798 5804 5809 5815 5820 5825 5830 5835 5839 5843 5847 5850 5854 5857 5859 5862 5864 5866 5868 5870 5871 5872 5873 5874 5875 5875 5875 5875 5875 5875 5874 5874 5874 5873 5872 5871
5689 5701 5709 5717 5726 5736 5743 5750 5756 5762 5770 5779 5786 5792 5798 5804 5810 5815 5820 5825 5830 5834 5838 5842 5846 5849 5852 5855 5858 5860 5862 5864 5866 5867 5868 5869 5870 5871 5872 5872 5872 5872 5872 5871 5871 5870 5869 5868 5868
5684 5694 5702 5711 5720 5729 5737 5744 5750 5757 5765 5773 5780 5787 5792 5798 5804 5810 5815 5820 5825 5829 5833 5837 5841 5844 5847 5850 5853 5855 5857 5860 5862 5863 5864 5865 5866 5867 5868 5868 5868 5868 5868 5867 5867 5866 5865 5864 5863
5677 5686 5696 5704 5714 5723 5731 5738 5744 5753 5759 5767 5774 5780 5786 5792 5798 5803 5809 5814 5819 5824 5828 5832 5835 5839 5842 5845 5848 5850 5852 5855 5857 5858 5859 5860 5861 5862 5863 5863 5863 5863 5863 5863 5862 5861 5860 5859 5858
5671 5680 5689 5699 5709 5717 5726 5733 5739 5746 5753 5760 5767 5774 5780 5786 5792 5797 5803 5808 5813 5818 5822 5826 5830 5833 5836 5839 5842 5845 5847 5849 5851 5853 5854 5855 5856 5857 5858 5858 5858 5858 5858 5857 5857 5856 5855 5854 5853
5666 5676 5685 5695 5703 5711 5719 5727 5733 5739 5746 5754 5760 5767 5774 5780 5786 5791 5797 5802 5807 5812 5816 5820 5824 5827 5830 5833 5836 5839 5841 5844 5845 5847 5849 5850 5851 5852 5852 5852 5852 5852 5852 5851 5851 5850 5849 5848 5847
5665 5674 5683 5691 5699 5706 5713 5722 5728 5733 5740 5747 5754 5760 5767 5773 5780 5786 5791 5796 5801 5806 5810 5814 5818 5821 5824 5827 5830 5833 5835 5837 5839 5841 5842 5844 5845 5845 5846 5846 5846 5846 5846 5845 5844 5843 5842 5841 5840
5664 5672 5680 5688 5695 5702 5709 5716 5722 5727 5734 5741 5748 5754 5760 5767 5773 5779 5784 5789 5795 5799 5804 5808 5811 5814 5818 5821 5824 5826 5828 5830 5832 5834 5836 5837 5838 5838 5839 5839 5839 5839 5839 5838 5837 5836 5835 5833 5832
5660 5668 5676 5684 5691 5698 5704 5710 5716 5722 5729 5736 5742 5748 5755 5761 5766 5772 5778 5783 5788 5793 5797 5801 5804 5807 5811 5814 5816 5819 5821 5823 5825 5827 5828 5829 5830 5831 5831 5831 5831 5831 5831 5830 5829 5828 5827 5825 5823
5660 5668 5675 5681 5688 5693 5700 5705 5712 5718 5724 5730 5736 5743 5749 5754 5760 5765 5772 5777 5781 5786 5790 5794 5797 5800 5803 5806 5808 5811 5813 5815 5817 5819 5820 5821 5822 5823 5823 5823 5823 5823 5822 5822 5821 5819 5818 5817 5815
5660 5667 5674 5680 5686 5691 5696 5702 5708 5713 5719 5725 5731 5737 5743 5748 5753 5757 5763 5769 5774 5778 5782 5786 5789 5792 5795 5798 5800 5802 5804 5807 5809 5810 5812 5812 5813 5814 5814 5814 5814 5814 5813 5813 5812 5810 5809 5808 5806
5660 5666 5673 5678 5683 5687 5692 5698 5705 5708 5714 5721 5727 5732 5736 5741 5746 5750 5755 5761 5766 5770 5774 5777 5781 5784 5787 5789 5791 5794 5796 5798 5799 5801 5802 5803 5804 5804 5804 5804 5804 5804 5804 5803 5802 5801 5799 5798 5796
5659 5666 5671 5675 5679 5685 5690 5695 5701 5705 5711 5716 5720 5725 5729 5734 5738 5742 5747 5752 5757 5762 5765 5769 5772 5775 5778 5780 5782 5784 5786 5788 5790 5791 5792 5793 5794 5795 5794 5794 5794 5794 5794 5793 5792 5791 5789 5788 5786
5659 5665 5670 5673 5677 5683 5688 5690 5697 5701 5705 5710 5714 5719 5722 5727 5731 5735 5739 5744 5749 5753 5757 5760 5763 5766 5768 5771 5773 5775 5777 5778 5780 5781 5782 5783 5784 5784 5784 5783 5784 5783 5783 5782 5781 5780 5779 5778 5776
5658 5664 5669 5673 5676 5680 5683 5687 5693 5696 5700 5704 5708 5712 5716 5720 5724 5728 5732 5737 5740 5744 5747 5750 5753 5756 5758 5761 5763 5765 5766 5768 5770 5770 5771 5772 5773 5773 5773 5773 5773 5772 5772 5771 5770 5769 5768 5767 5765
5657 5661 5666 5670 5673 5677 5680 5684 5688 5691 5695 5698 5702 5705 5709 5713 5717 5720 5724 5728 5732 5735 5738 5740 5743 5746 5748 5750 5752 5754 5756 5757 5758 5759 5760 5761 5762 5762 5762 5762 5762 5761 5760 5760 5759 5758 5757 5756 5754
5657 5660 5664 5668 5671 5674 5677 5680 5683 5686 5689 5693 5696 5699 5702 5706 5709 5712 5715 5719 5723 5726 5728 5730 5733 5735 5738 5740 5741 5743 5745 5746 5747 5748 5749 5750 5750 5750 5750 5750 5750 5749 5749 5748 5748 5747 5746 5744 5743
5655 5659 5661 5664 5668 5671 5673 5677 5678 5681 5684 5687 5690 5693 5696 5699 5702 5704 5707 5710 5713 5716 5718 5720 5723 5725 5727 5729 5730 5732 5733 5734 5736 5737 5737 5738 5738 5738 5738 5738 5738 5738 5737 5737 5736 5735 5734 5733 5732
5653 5656 5659 5662 5664 5667 5669 5674 5674 5676 5679 5681 5684 5686 5689 5692 5694 5697 5699 5701 5704 5706 5709 5711 5713 5715 5716 5718 5719 5721 5722 5723 5724 5725 5725 5726 5726 5726 5726 5726 5726 5726 5725 5725 5724 5723 5722 5721 5720